Regional Weather Roundup
Issued by NWS

Home | Current Version | Previous Version | Graphics & Text | Print | Product List | Glossary On
Versions: 1 2 3 4 5 6 7 8 9 10 11 12 13 14 15 16 17 18 19 20 21 22 23 24 25 26 27 28 29 30 31 32 33 34 35 36 37 38 39 40 41 42 43 44 45 46 47 48 49 50
000
ASUS43 KLSX 220959
RWRMO

WEATHER SUMMARY FOR MISSOURI
NATIONAL WEATHER SERVICE SPRINGFIELD MO
500 AM CDT WED OCT 22 2014

NOTE: "FAIR" INDICATES FEW OR NO CLOUDS BELOW 12,000 FEET WITH NO
       SIGNIFICANT WEATHER AND/OR OBSTRUCTIONS TO VISIBILITY.
       CURRENT SKY AND/OR WEATHER CONDITIONS ARE NOT AVAILABLE FOR
       CHILLICOTHE AND FARMINGTON.

MOZ001>031-035>038-043-044-053-054-221100-
...NORTHERN AND WESTERN MISSOURI...

CITY           SKY/WX    TMP DP  RH WIND       PRES   REMARKS
KANSAS CTY INT CLOUDY    55  46  71 SE14      30.14R
KANSAS C DTWN  CLOUDY    57  45  64 E8        30.14S
LEE`S SUMMIT   PTCLDY    53  45  74 SE7       30.16R
ST JOSEPH      MOCLDY    55  45  68 SE7       30.15R
CHILLICOTHE      N/A     48  41  76 SE6       30.21R
KIRKSVILLE     CLEAR     42  40  92 E9        30.24R

$$
MOZ066>068-077>081-088>096-101>105-221100-
...SOUTHWEST MISSOURI...

CITY           SKY/WX    TMP DP  RH WIND       PRES   REMARKS
SPRINGFIELD    CLEAR     52  44  74 SE12      30.17R
JOPLIN         MOCLDY    55  48  77 SE10      30.12S

$$
MOZ032>034-039>042-045>050-055>058-069>072-221100-
...CENTRAL MISSOURI...

CITY           SKY/WX    TMP DP  RH WIND       PRES   REMARKS
COLUMBIA       CLEAR     45  40  82 E8        30.22R
JEFFERSON CITY CLEAR     45  40  82 E5        30.23R
ROLLA          CLEAR     45  40  82 E8        30.21R
SEDALIA        CLEAR     47  43  86 SE6       30.20R
OSAGE BEACH    CLEAR     46  39  76 E5        30.20R

$$
MOZ051-052-059>065-221100-
...EAST CENTRAL MISSOURI...

CITY           SKY/WX    TMP DP  RH WIND       PRES   REMARKS
ST LOUIS INTL  CLEAR     45  39  79 E6        30.27R
SPIRIT OF STL  CLEAR     40  39  97 CALM      30.26R FOG
ST CHARLES     CLEAR     43  39  86 CALM      30.27R

$$
MOZ072>076-082>087-097>100-106>115-221100-
...SOUTH CENTRAL AND SOUTHEAST MISSOURI...

CITY           SKY/WX    TMP DP  RH WIND       PRES   REMARKS
CAPE GIRARDEAU CLEAR     45  40  82 CALM      30.23R
FARMINGTON     CLEAR     39  39 100 CALM      30.25R
POPLAR BLUFF   CLEAR     48  41  76 N6        30.21R
WEST PLAINS    CLEAR     46  42  86 E3        30.22R

$$



USA.gov is the U.S. government's official web portal to all federal, state and local government web resources and services.